| time (UTC) | temp C | wind direction | speed KPH | gust KPH | rain 1hr cm | rain 24hr cm | rain mn cm | humidity % | barometer mb |
| 20260510231048 | 21 | 117 | 0.0 | 0.0 | 0.00 | 0.08 | 0.08 | 69 | 1011.7 |
| 20260510230543 | 21 | 127 | 0.0 | 0.0 | 0.00 | 0.08 | 0.08 | 69 | 1011.7 |
| 20260510230040 | 21 | 149 | 1.6 | 1.6 | 0.00 | 0.08 | 0.08 | 66 | 1011.7 |
| 20260510225537 | 21 | 138 | 0.0 | 1.6 | 0.00 | 0.08 | 0.08 | 69 | 1011.5 |
| 20260510225033 | 21 | 139 | 1.6 | 1.6 | 0.00 | 0.08 | 0.08 | 70 | 1011.8 |
| 20260510224528 | 21 | 136 | 0.0 | 0.0 | 0.00 | 0.08 | 0.08 | 66 | 1011.5 |
| 20260510224025 | 21 | 122 | 3.2 | 3.2 | 0.00 | 0.08 | 0.08 | 65 | 1011.6 |
| 20260510223524 | 21 | 146 | 0.0 | 1.6 | 0.00 | 0.08 | 0.08 | 66 | 1011.5 |
| 20260510223021 | 21 | 150 | 0.0 | 0.0 | 0.00 | 0.08 | 0.08 | 65 | 1011.6 |
| 20260510222518 | 21 | 136 | 1.6 | 1.6 | 0.00 | 0.08 | 0.08 | 66 | 1011.6 |
| 20260510222014 | 21 | 133 | 0.0 | 1.6 | 0.00 | 0.08 | 0.08 | 66 | 1011.6 |
| 20260510221510 | 21 | 143 | 1.6 | 3.2 | 0.00 | 0.08 | 0.08 | 65 | 1011.6 |
| 20260510221006 | 21 | 46 | 6.4 | 8.0 | 0.00 | 0.08 | 0.08 | 66 | 1011.8 |
| 20260510220502 | 21 | 141 | 1.6 | 3.2 | 0.00 | 0.08 | 0.08 | 66 | 1011.7 |
| 20260510215958 | 21 | 164 | 6.4 | 9.7 | 0.00 | 0.08 | 0.08 | 65 | 1011.6 |
| 20260510215456 | 22 | 309 | 6.4 | 8.0 | 0.00 | 0.08 | 0.08 | 67 | 1011.3 |
| 20260510214954 | 22 | 256 | 6.4 | 8.0 | 0.00 | 0.08 | 0.08 | 65 | 1011.2 |
| 20260510214450 | 22 | 157 | 1.6 | 3.2 | 0.00 | 0.08 | 0.08 | 68 | 1011.2 |
| 20260510213947 | 22 | 189 | 4.8 | 4.8 | 0.00 | 0.08 | 0.08 | 67 | 1011.2 |
| 20260510213444 | 22 | 37 | 4.8 | 8.0 | 0.00 | 0.08 | 0.08 | 67 | 1011.0 |
| 20260510212940 | 22 | 143 | 3.2 | 3.2 | 0.00 | 0.08 | 0.08 | 66 | 1011.0 |
| 20260510212437 | 22 | 164 | 3.2 | 4.8 | 0.00 | 0.08 | 0.08 | 67 | 1011.2 |
| 20260510211934 | 23 | 208 | 8.0 | 11.3 | 0.00 | 0.08 | 0.08 | 68 | 1011.0 |
| 20260510211431 | 23 | 258 | 3.2 | 8.0 | 0.00 | 0.08 | 0.08 | 65 | 1010.7 |
| 20260510210925 | 23 | 174 | 3.2 | 3.2 | 0.00 | 0.08 | 0.08 | 64 | 1010.7 |
| 20260510210421 | 23 | 132 | 3.2 | 3.2 | 0.00 | 0.08 | 0.08 | 66 | 1010.8 |
| 20260510205920 | 23 | 125 | 0.0 | 0.0 | 0.00 | 0.08 | 0.08 | 67 | 1010.8 |
| 20260510205415 | 23 | 233 | 6.4 | 8.0 | 0.00 | 0.08 | 0.08 | 65 | 1010.6 |
| 20260510204912 | 23 | 287 | 8.0 | 9.7 | 0.00 | 0.08 | 0.08 | 64 | 1010.9 |
| 20260510204408 | 23 | 294 | 9.7 | 12.9 | 0.00 | 0.08 | 0.08 | 67 | 1010.7 |
| 20260510203905 | 23 | 132 | 1.6 | 3.2 | 0.00 | 0.08 | 0.08 | 66 | 1010.8 |
| 20260510203403 | 23 | 353 | 4.8 | 8.0 | 0.00 | 0.08 | 0.08 | 69 | 1010.9 |
| 20260510202902 | 23 | 259 | 6.4 | 8.0 | 0.00 | 0.08 | 0.08 | 65 | 1010.7 |
| 20260510202358 | 23 | 189 | 3.2 | 3.2 | 0.00 | 0.08 | 0.08 | 67 | 1010.9 |
| 20260510201855 | 23 | 181 | 4.8 | 8.0 | 0.00 | 0.08 | 0.08 | 67 | 1010.7 |
| 20260510201352 | 22 | 161 | 3.2 | 3.2 | 0.00 | 0.08 | 0.08 | 70 | 1010.7 |
| 20260510200849 | 22 | 150 | 0.0 | 0.0 | 0.00 | 0.08 | 0.08 | 74 | 1010.9 |
| 20260510200348 | 23 | 133 | 0.0 | 0.0 | 0.00 | 0.08 | 0.08 | 71 | 1010.8 |
| 20260510195843 | 23 | 65 | 3.2 | 4.8 | 0.00 | 0.08 | 0.08 | 70 | 1010.9 |
| 20260510195340 | 23 | 160 | 3.2 | 3.2 | 0.00 | 0.08 | 0.08 | 68 | 1010.8 |
| 20260510194834 | 23 | 139 | 4.8 | 4.8 | 0.00 | 0.08 | 0.08 | 68 | 1011.0 |
| 20260510194332 | 23 | 107 | 1.6 | 3.2 | 0.00 | 0.08 | 0.08 | 77 | 1011.1 |
| 20260510193827 | 22 | 128 | 0.0 | 1.6 | 0.00 | 0.08 | 0.08 | 80 | 1011.1 |
| 20260510193322 | 22 | 125 | 3.2 | 3.2 | 0.00 | 0.08 | 0.08 | 81 | 1011.0 |
| 20260510192818 | 21 | 123 | 1.6 | 1.6 | 0.00 | 0.08 | 0.08 | 83 | 1011.0 |
| 20260510192313 | 21 | 121 | 0.0 | 0.0 | 0.00 | 0.08 | 0.08 | 80 | 1011.0 |
| 20260510191810 | 21 | 123 | 0.0 | 0.0 | 0.00 | 0.08 | 0.08 | 79 | 1011.1 |
| 20260510191306 | 20 | 117 | 1.6 | 1.6 | 0.00 | 0.08 | 0.08 | 79 | 1011.2 |
| 20260510190804 | 20 | 148 | 3.2 | 3.2 | 0.18 | 0.08 | 0.08 | 83 | 1011.4 |
| 20260510190301 | 20 | 115 | 0.0 | 1.6 | 0.30 | 0.08 | 0.08 | 80 | 1011.2 |
| 20260510185757 | 20 | 124 | 6.4 | 8.0 | 0.30 | 0.05 | 0.05 | 78 | 1011.4 |
| 20260510185255 | 21 | 125 | 1.6 | 1.6 | 0.18 | 0.03 | 0.03 | 73 | 1011.5 |
| 20260510184752 | 21 | 138 | 6.4 | 8.0 | 0.00 | 0.00 | 0.00 | 69 | 1011.5 |
| 20260510184248 | 22 | 67 | 4.8 | 8.0 | 0.00 | 0.00 | 0.00 | 63 | 1011.2 |
| 20260510183743 | 22 | 131 | 0.0 | 0.0 | 0.00 | 0.00 | 0.00 | 62 | 1011.1 |
| 20260510183238 | 22 | 120 | 0.0 | 1.6 | 0.00 | 0.00 | 0.00 | 62 | 1011.1 |
| 20260510182735 | 22 | 133 | 0.0 | 0.0 | 0.00 | 0.00 | 0.00 | 61 | 1011.0 |
| 20260510182231 | 23 | 112 | 4.8 | 8.0 | 0.00 | 0.00 | 0.00 | 60 | 1011.2 |
| 20260510181728 | 23 | 72 | 3.2 | 4.8 | 0.00 | 0.00 | 0.00 | 59 | 1011.0 |
| 20260510181225 | 23 | 45 | 4.8 | 9.7 | 0.00 | 0.00 | 0.00 | 60 | 1011.1 |
| 20260510180721 | 24 | 356 | 11.3 | 14.5 | 0.00 | 0.00 | 0.00 | 59 | 1010.8 |
| 20260510180219 | 22 | 146 | 0.0 | 1.6 | 0.00 | 0.00 | 0.00 | 64 | 1010.9 |
| 20260510175714 | 22 | 158 | 1.6 | 3.2 | 0.00 | 0.00 | 0.00 | 62 | 1011.1 |
| 20260510175210 | 23 | 137 | 4.8 | 8.0 | 0.00 | 0.00 | 0.00 | 62 | 1011.0 |
| 20260510174708 | 22 | 108 | 1.6 | 3.2 | 0.00 | 0.00 | 0.00 | 62 | 1011.1 |
| 20260510174205 | 23 | 38 | 3.2 | 8.0 | 0.00 | 0.00 | 0.00 | 63 | 1011.0 |
| 20260510173701 | 23 | 150 | 3.2 | 3.2 | 0.00 | 0.00 | 0.00 | 65 | 1010.8 |
| 20260510173157 | 23 | 243 | 4.8 | 4.8 | 0.00 | 0.00 | 0.00 | 65 | 1010.9 |
| 20260510172652 | 23 | 146 | 1.6 | 1.6 | 0.00 | 0.00 | 0.00 | 64 | 1011.0 |
| 20260510172149 | 23 | 146 | 3.2 | 3.2 | 0.00 | 0.00 | 0.00 | 65 | 1010.9 |
| 20260510171646 | 23 | 130 | 4.8 | 4.8 | 0.00 | 0.00 | 0.00 | 62 | 1011.1 |
| 20260510171143 | 23 | 116 | 0.0 | 0.0 | 0.00 | 0.00 | 0.00 | 64 | 1010.7 |
| 20260510170639 | 22 | 126 | 0.0 | 0.0 | 0.00 | 0.00 | 0.00 | 66 | 1010.9 |
| 20260510170136 | 22 | 119 | 1.6 | 1.6 | 0.00 | 0.00 | 0.00 | 67 | 1011.1 |
| 20260510165632 | 21 | 146 | 3.2 | 3.2 | 0.00 | 0.00 | 0.00 | 67 | 1011.1 |
| 20260510165127 | 21 | 77 | 4.8 | 4.8 | 0.00 | 0.00 | 0.00 | 69 | 1011.2 |
| 20260510164625 | 21 | 141 | 1.6 | 1.6 | 0.00 | 0.00 | 0.00 | 68 | 1011.2 |
| 20260510164122 | 21 | 149 | 3.2 | 3.2 | 0.00 | 0.00 | 0.00 | 68 | 1011.1 |
| 20260510163617 | 21 | 116 | 0.0 | 0.0 | 0.00 | 0.00 | 0.00 | 66 | 1011.1 |
| 20260510163114 | 22 | 62 | 0.0 | 1.6 | 0.00 | 0.00 | 0.00 | 65 | 1011.3 |
| 20260510162608 | 22 | 134 | 0.0 | 0.0 | 0.00 | 0.00 | 0.00 | 63 | 1011.1 |
| 20260510162105 | 23 | 24 | 1.6 | 4.8 | 0.00 | 0.00 | 0.00 | 63 | 1011.1 |
| 20260510161601 | 23 | 118 | 0.0 | 0.0 | 0.00 | 0.00 | 0.00 | 63 | 1010.9 |
| 20260510161058 | 23 | 75 | 8.0 | 12.9 | 0.00 | 0.00 | 0.00 | 60 | 1011.1 |
| 20260510160555 | 23 | 118 | 4.8 | 4.8 | 0.00 | 0.00 | 0.00 | 60 | 1010.9 |
| 20260510160054 | 22 | 130 | 6.4 | 8.0 | 0.00 | 0.00 | 0.00 | 61 | 1011.2 |
| 20260510155551 | 22 | 123 | 0.0 | 1.6 | 0.00 | 0.00 | 0.00 | 62 | 1011.1 |
| 20260510155048 | 22 | 317 | 11.3 | 16.1 | 0.00 | 0.00 | 0.00 | 61 | 1011.0 |
| 20260510154543 | 22 | 136 | 1.6 | 1.6 | 0.00 | 0.00 | 0.00 | 65 | 1011.1 |
| 20260510154039 | 21 | 103 | 3.2 | 3.2 | 0.00 | 0.00 | 0.00 | 64 | 1011.0 |
| 20260510153534 | 21 | 345 | 4.8 | 8.0 | 0.00 | 0.00 | 0.00 | 62 | 1010.9 |
| 20260510153031 | 22 | 206 | 8.0 | 9.7 | 0.00 | 0.00 | 0.00 | 62 | 1011.0 |
| 20260510152528 | 21 | 132 | 6.4 | 9.7 | 0.00 | 0.00 | 0.00 | 65 | 1010.8 |
| 20260510152024 | 21 | 18 | 3.2 | 4.8 | 0.00 | 0.00 | 0.00 | 64 | 1010.8 |
| 20260510151521 | 21 | 110 | 1.6 | 1.6 | 0.00 | 0.00 | 0.00 | 66 | 1010.9 |
| 20260510151019 | 21 | 93 | 4.8 | 4.8 | 0.00 | 0.00 | 0.00 | 64 | 1010.8 |
| 20260510150513 | 21 | 73 | 4.8 | 4.8 | 0.00 | 0.00 | 0.00 | 62 | 1010.9 |
| 20260510150010 | 21 | 121 | 4.8 | 8.0 | 0.00 | 0.00 | 0.00 | 62 | 1010.8 |
| 20260510145507 | 21 | 129 | 3.2 | 3.2 | 0.00 | 0.00 | 0.00 | 67 | 1010.8 |
| 20260510145003 | 21 | 96 | 4.8 | 9.7 | 0.00 | 0.00 | 0.00 | 64 | 1010.7 |
| 20260510144459 | 21 | 150 | 8.0 | 9.7 | 0.00 | 0.00 | 0.00 | 65 | 1010.7 |
| 20260510143954 | 21 | 107 | 1.6 | 4.8 | 0.00 | 0.00 | 0.00 | 67 | 1010.4 |
| 20260510143445 | 21 | 110 | 11.3 | 12.9 | 0.00 | 0.00 | 0.00 | 64 | 1010.8 |
| 20260510142942 | 21 | 113 | 4.8 | 4.8 | 0.00 | 0.00 | 0.00 | 65 | 1010.7 |
| 20260510142439 | 21 | 132 | 0.0 | 1.6 | 0.00 | 0.00 | 0.00 | 67 | 1010.7 |
| 20260510141935 | 21 | 85 | 4.8 | 8.0 | 0.00 | 0.00 | 0.00 | 66 | 1011.0 |
| 20260510141432 | 20 | 115 | 6.4 | 9.7 | 0.00 | 0.00 | 0.00 | 67 | 1010.7 |
| 20260510140929 | 21 | 121 | 0.0 | 0.0 | 0.00 | 0.00 | 0.00 | 67 | 1010.9 |
| 20260510140426 | 20 | 131 | 3.2 | 3.2 | 0.00 | 0.00 | 0.00 | 70 | 1010.8 |
| 20260510135925 | 20 | 137 | 4.8 | 8.0 | 0.00 | 0.00 | 0.00 | 70 | 1010.8 |
| 20260510135421 | 20 | 114 | 0.0 | 1.6 | 0.00 | 0.00 | 0.00 | 72 | 1010.6 |
| 20260510134918 | 19 | 123 | 1.6 | 3.2 | 0.00 | 0.00 | 0.00 | 74 | 1010.9 |
| 20260510134415 | 19 | 132 | 4.8 | 4.8 | 0.00 | 0.00 | 0.00 | 73 | 1010.7 |
| 20260510133911 | 18 | 117 | 3.2 | 3.2 | 0.00 | 0.00 | 0.00 | 74 | 1010.9 |
| 20260510133408 | 18 | 116 | 3.2 | 3.2 | 0.00 | 0.00 | 0.00 | 76 | 1010.7 |
| 20260510132903 | 18 | 127 | 4.8 | 4.8 | 0.00 | 0.00 | 0.00 | 77 | 1010.8 |
| 20260510132401 | 17 | 129 | 0.0 | 0.0 | 0.00 | 0.00 | 0.00 | 84 | 1010.9 |
| 20260510131858 | 17 | 132 | 0.0 | 0.0 | 0.00 | 0.00 | 0.00 | 82 | 1010.9 |
| 20260510131355 | 17 | 133 | 0.0 | 1.6 | 0.00 | 0.00 | 0.00 | 83 | 1010.8 |
| 20260510130852 | 17 | 125 | 1.6 | 3.2 | 0.00 | 0.00 | 0.00 | 80 | 1010.6 |
| 20260510130349 | 17 | 116 | 6.4 | 8.0 | 0.00 | 0.00 | 0.00 | 79 | 1010.8 |
| 20260510125846 | 17 | 129 | 1.6 | 1.6 | 0.00 | 0.00 | 0.00 | 85 | 1010.6 |
| 20260510125342 | 16 | 129 | 4.8 | 4.8 | 0.00 | 0.00 | 0.00 | 86 | 1010.5 |
| 20260510124839 | 15 | 132 | 0.0 | 1.6 | 0.00 | 0.00 | 0.00 | 91 | 1010.8 |
| 20260510124335 | 14 | 135 | 3.2 | 3.2 | 0.00 | 0.00 | 0.00 | 98 | 1010.6 |
| 20260510123831 | 13 | 120 | 1.6 | 3.2 | 0.00 | 0.00 | 0.00 | 99 | 1010.7 |
| 20260510123327 | 12 | 123 | 0.0 | 0.0 | 0.00 | 0.00 | 0.00 | 99 | 1010.5 |
| 20260510122823 | 12 | 123 | 0.0 | 0.0 | 0.00 | 0.00 | 0.00 | 99 | 1010.5 |
| 20260510122320 | 12 | 133 | 0.0 | 0.0 | 0.00 | 0.00 | 0.00 | 99 | 1010.4 |
| 20260510121816 | 11 | 126 | 0.0 | 0.0 | 0.00 | 0.00 | 0.00 | 99 | 1010.2 |
| 20260510121314 | 11 | 130 | 0.0 | 0.0 | 0.00 | 0.00 | 0.00 | 99 | 1010.0 |
| 20260510120811 | 10 | 129 | 0.0 | 0.0 | 0.00 | 0.00 | 0.00 | 99 | 1010.3 |
| 20260510120307 | 10 | 125 | 0.0 | 0.0 | 0.00 | 0.00 | 0.00 | 99 | 1010.2 |
| 20260510115803 | 10 | 126 | 0.0 | 0.0 | 0.00 | 0.00 | 0.00 | 99 | 1010.2 |
| 20260510115305 | 10 | 130 | 0.0 | 0.0 | 0.00 | 0.00 | 0.00 | 99 | 1010.1 |
| 20260510114756 | 9 | 130 | 0.0 | 0.0 | 0.00 | 0.00 | 0.00 | 99 | 1010.0 |
| 20260510114253 | 9 | 130 | 0.0 | 0.0 | 0.00 | 0.00 | 0.00 | 99 | 1010.2 |
| 20260510113748 | 9 | 130 | 0.0 | 0.0 | 0.00 | 0.00 | 0.00 | 99 | 1010.0 |
| 20260510113246 | 8 | 130 | 0.0 | 0.0 | 0.00 | 0.00 | 0.00 | 99 | 1009.9 |
| 20260510112742 | 8 | 130 | 0.0 | 0.0 | 0.00 | 0.00 | 0.00 | 99 | 1010.0 |
| 20260510112238 | 8 | 130 | 0.0 | 0.0 | 0.00 | 0.00 | 0.00 | 99 | 1009.9 |
| 20260510111734 | 8 | 130 | 0.0 | 0.0 | 0.00 | 0.00 | 0.00 | 99 | 1009.9 |
| 20260510111232 | 8 | 129 | 0.0 | 0.0 | 0.00 | 0.00 | 0.00 | 99 | 1009.7 |
| 20260510110731 | 8 | 129 | 0.0 | 0.0 | 0.00 | 0.00 | 0.00 | 99 | 1009.2 |
| 20260510110229 | 8 | 129 | 0.0 | 0.0 | 0.00 | 0.00 | 0.00 | 99 | 1009.2 |
| 20260510105728 | 8 | 129 | 0.0 | 0.0 | 0.00 | 0.00 | 0.00 | 99 | 1009.3 |
| 20260510105224 | 8 | 129 | 0.0 | 0.0 | 0.00 | 0.00 | 0.00 | 99 | 1009.3 |
| 20260510104720 | 8 | 129 | 0.0 | 0.0 | 0.00 | 0.00 | 0.00 | 99 | 1009.2 |
| 20260510104218 | 8 | 129 | 0.0 | 0.0 | 0.00 | 0.00 | 0.00 | 99 | 1009.0 |
| 20260510103714 | 8 | 129 | 0.0 | 0.0 | 0.00 | 0.00 | 0.00 | 99 | 1009.1 |
| 20260510103212 | 8 | 129 | 0.0 | 0.0 | 0.00 | 0.00 | 0.00 | 99 | 1009.0 |
| 20260510102711 | 8 | 129 | 0.0 | 0.0 | 0.00 | 0.00 | 0.00 | 99 | 1009.1 |
| 20260510102207 | 8 | 129 | 0.0 | 0.0 | 0.00 | 0.00 | 0.00 | 99 | 1008.8 |
| 20260510101705 | 8 | 128 | 0.0 | 0.0 | 0.00 | 0.00 | 0.00 | 99 | 1008.8 |
| 20260510101203 | 8 | 131 | 0.0 | 0.0 | 0.00 | 0.00 | 0.00 | 99 | 1008.8 |
| 20260510100658 | 8 | 128 | 0.0 | 0.0 | 0.00 | 0.00 | 0.00 | 99 | 1009.0 |
| 20260510100156 | 8 | 129 | 0.0 | 0.0 | 0.00 | 0.00 | 0.00 | 99 | 1009.0 |
| 20260510095652 | 8 | 130 | 0.0 | 0.0 | 0.00 | 0.00 | 0.00 | 99 | 1008.9 |
| 20260510095147 | 8 | 121 | 0.0 | 0.0 | 0.00 | 0.00 | 0.00 | 99 | 1008.9 |
| 20260510094646 | 8 | 130 | 0.0 | 0.0 | 0.00 | 0.00 | 0.00 | 99 | 1008.6 |
| 20260510094142 | 8 | 130 | 0.0 | 0.0 | 0.00 | 0.00 | 0.00 | 99 | 1008.5 |
| 20260510093638 | 8 | 129 | 0.0 | 0.0 | 0.00 | 0.00 | 0.00 | 99 | 1008.5 |
| 20260510093135 | 8 | 129 | 0.0 | 0.0 | 0.00 | 0.00 | 0.00 | 99 | 1008.4 |
| 20260510092632 | 8 | 130 | 0.0 | 0.0 | 0.00 | 0.00 | 0.00 | 99 | 1008.4 |
| 20260510092127 | 8 | 127 | 0.0 | 0.0 | 0.00 | 0.00 | 0.00 | 99 | 1008.4 |
| 20260510091623 | 9 | 126 | 0.0 | 0.0 | 0.00 | 0.00 | 0.00 | 99 | 1008.3 |
| 20260510091120 | 8 | 127 | 0.0 | 0.0 | 0.00 | 0.00 | 0.00 | 99 | 1008.4 |
| 20260510090617 | 8 | 128 | 0.0 | 0.0 | 0.00 | 0.00 | 0.00 | 99 | 1008.4 |
| 20260510090113 | 8 | 128 | 0.0 | 0.0 | 0.00 | 0.00 | 0.00 | 99 | 1008.2 |
| 20260510085608 | 8 | 128 | 0.0 | 0.0 | 0.00 | 0.00 | 0.00 | 99 | 1008.2 |
| 20260510085104 | 8 | 130 | 0.0 | 0.0 | 0.00 | 0.00 | 0.00 | 99 | 1008.0 |
| 20260510084601 | 8 | 129 | 0.0 | 0.0 | 0.00 | 0.00 | 0.00 | 99 | 1008.2 |
| 20260510084057 | 9 | 129 | 0.0 | 0.0 | 0.00 | 0.00 | 0.00 | 99 | 1008.1 |
| 20260510083554 | 9 | 134 | 0.0 | 0.0 | 0.00 | 0.00 | 0.00 | 99 | 1008.3 |
| 20260510083050 | 9 | 128 | 0.0 | 0.0 | 0.00 | 0.00 | 0.00 | 99 | 1008.0 |
| 20260510082547 | 9 | 126 | 0.0 | 0.0 | 0.00 | 0.00 | 0.00 | 99 | 1008.0 |
| 20260510082042 | 9 | 123 | 0.0 | 0.0 | 0.00 | 0.00 | 0.00 | 99 | 1008.0 |
| 20260510081537 | 9 | 125 | 0.0 | 0.0 | 0.00 | 0.00 | 0.00 | 99 | 1008.0 |
| 20260510081033 | 9 | 129 | 0.0 | 0.0 | 0.00 | 0.00 | 0.00 | 99 | 1007.8 |
| 20260510080532 | 9 | 129 | 1.6 | 1.6 | 0.00 | 0.00 | 0.00 | 99 | 1007.8 |
| 20260510080030 | 9 | 135 | 1.6 | 3.2 | 0.00 | 0.00 | 0.00 | 99 | 1007.9 |
| 20260510075527 | 9 | 122 | 0.0 | 1.6 | 0.00 | 0.00 | 0.00 | 99 | 1007.7 |
| 20260510075024 | 9 | 126 | 0.0 | 0.0 | 0.00 | 0.00 | 0.00 | 99 | 1007.7 |
| 20260510074522 | 9 | 125 | 0.0 | 0.0 | 0.00 | 0.00 | 0.00 | 99 | 1007.7 |
| 20260510074016 | 9 | 126 | 0.0 | 0.0 | 0.00 | 0.00 | 0.00 | 99 | 1007.7 |
| 20260510073512 | 9 | 123 | 0.0 | 0.0 | 0.00 | 0.00 | 0.00 | 99 | 1007.7 |
| 20260510073010 | 9 | 132 | 0.0 | 0.0 | 0.00 | 0.00 | 0.00 | 99 | 1007.8 |
| 20260510072506 | 9 | 128 | 0.0 | 0.0 | 0.00 | 0.00 | 0.00 | 99 | 1007.4 |
| 20260510072001 | 9 | 127 | 0.0 | 0.0 | 0.00 | 0.00 | 0.00 | 99 | 1007.5 |
| 20260510071458 | 9 | 126 | 0.0 | 0.0 | 0.00 | 0.00 | 0.00 | 99 | 1007.6 |
| 20260510070957 | 9 | 130 | 0.0 | 0.0 | 0.00 | 0.00 | 0.00 | 99 | 1007.6 |
| 20260510070453 | 9 | 127 | 0.0 | 1.6 | 0.00 | 0.00 | 0.00 | 99 | 1007.8 |
| 20260510065949 | 10 | 131 | 1.6 | 1.6 | 0.00 | 0.00 | 0.00 | 99 | 1007.6 |
| 20260510065446 | 9 | 130 | 0.0 | 0.0 | 0.00 | 0.00 | 0.00 | 99 | 1007.8 |
| 20260510064942 | 10 | 131 | 1.6 | 1.6 | 0.00 | 0.00 | 0.00 | 99 | 1007.6 |
| 20260510064440 | 10 | 124 | 1.6 | 1.6 | 0.00 | 0.00 | 0.00 | 99 | 1007.5 |
| 20260510063936 | 10 | 120 | 0.0 | 0.0 | 0.00 | 0.00 | 0.00 | 99 | 1007.9 |
| 20260510063432 | 10 | 128 | 0.0 | 0.0 | 0.00 | 0.00 | 0.00 | 99 | 1007.6 |
| 20260510062931 | 10 | 135 | 0.0 | 1.6 | 0.00 | 0.00 | 0.00 | 99 | 1007.7 |
| 20260510062430 | 10 | 150 | 3.2 | 3.2 | 0.00 | 0.00 | 0.00 | 99 | 1007.9 |
| 20260510061926 | 10 | 128 | 0.0 | 0.0 | 0.00 | 0.00 | 0.00 | 99 | 1007.8 |
| 20260510061423 | 10 | 133 | 0.0 | 1.6 | 0.00 | 0.00 | 0.00 | 99 | 1007.8 |
| 20260510060919 | 10 | 128 | 0.0 | 1.6 | 0.00 | 0.00 | 0.00 | 99 | 1007.7 |
| 20260510060417 | 10 | 129 | 0.0 | 0.0 | 0.00 | 0.00 | 0.00 | 99 | 1007.7 |
| 20260510055913 | 10 | 128 | 0.0 | 0.0 | 0.00 | 0.00 | 0.00 | 99 | 1007.7 |
| 20260510055408 | 10 | 124 | 1.6 | 1.6 | 0.00 | 0.00 | 0.00 | 99 | 1007.6 |
| 20260510054907 | 10 | 122 | 0.0 | 0.0 | 0.00 | 0.00 | 0.00 | 99 | 1007.6 |
| 20260510054402 | 10 | 131 | 0.0 | 0.0 | 0.00 | 0.00 | 0.00 | 99 | 1007.8 |
| 20260510053857 | 10 | 123 | 0.0 | 0.0 | 0.00 | 0.00 | 0.00 | 99 | 1007.7 |
| 20260510053353 | 10 | 127 | 0.0 | 0.0 | 0.00 | 0.00 | 0.00 | 99 | 1007.7 |
| 20260510052849 | 10 | 130 | 0.0 | 0.0 | 0.00 | 0.00 | 0.00 | 99 | 1007.8 |
| 20260510052345 | 10 | 124 | 0.0 | 0.0 | 0.00 | 0.00 | 0.00 | 99 | 1007.6 |
| 20260510051841 | 10 | 131 | 0.0 | 0.0 | 0.00 | 0.00 | 0.00 | 99 | 1007.7 |
| 20260510051338 | 10 | 131 | 0.0 | 0.0 | 0.00 | 0.00 | 0.00 | 99 | 1007.9 |
| 20260510050835 | 10 | 130 | 0.0 | 0.0 | 0.00 | 0.00 | 0.00 | 99 | 1008.1 |
| 20260510050332 | 11 | 137 | 0.0 | 0.0 | 0.00 | 0.00 | 0.00 | 99 | 1007.9 |
| 20260510045829 | 10 | 127 | 0.0 | 0.0 | 0.00 | 0.00 | 0.00 | 99 | 1007.9 |
| 20260510045326 | 11 | 138 | 1.6 | 1.6 | 0.00 | 0.00 | 0.00 | 99 | 1007.8 |
| 20260510044823 | 10 | 126 | 0.0 | 0.0 | 0.00 | 0.00 | 0.00 | 99 | 1008.1 |
| 20260510044319 | 10 | 128 | 0.0 | 0.0 | 0.00 | 0.00 | 0.00 | 99 | 1008.0 |
| 20260510043816 | 10 | 136 | 1.6 | 1.6 | 0.00 | 0.00 | 0.00 | 99 | 1008.0 |
| 20260510043312 | 10 | 130 | 0.0 | 1.6 | 0.00 | 0.00 | 0.00 | 99 | 1008.3 |
| 20260510042810 | 10 | 130 | 1.6 | 1.6 | 0.00 | 0.00 | 0.00 | 99 | 1008.2 |
| 20260510042307 | 11 | 129 | 1.6 | 1.6 | 0.00 | 0.00 | 0.00 | 99 | 1008.1 |
| 20260510041802 | 11 | 127 | 1.6 | 1.6 | 0.00 | 0.00 | 0.00 | 99 | 1008.1 |
| 20260510041259 | 11 | 133 | 1.6 | 1.6 | 0.00 | 0.00 | 0.00 | 99 | 1008.0 |
| 20260510040757 | 11 | 134 | 3.2 | 3.2 | 0.00 | 0.00 | 0.00 | 99 | 1008.2 |
| 20260510040248 | 11 | 137 | 1.6 | 3.2 | 0.00 | 0.00 | 0.00 | 99 | 1008.1 |
| 20260510035743 | 11 | 133 | 1.6 | 3.2 | 0.00 | 0.00 | 0.00 | 99 | 1008.2 |
| 20260510035239 | 11 | 133 | 3.2 | 3.2 | 0.00 | 0.00 | 0.00 | 99 | 1008.1 |
| 20260510034735 | 11 | 134 | 3.2 | 3.2 | 0.00 | 0.00 | 0.00 | 99 | 1008.3 |
| 20260510034233 | 11 | 132 | 3.2 | 3.2 | 0.00 | 0.00 | 0.00 | 99 | 1008.3 |
| 20260510033729 | 11 | 130 | 1.6 | 3.2 | 0.00 | 0.00 | 0.00 | 99 | 1008.3 |
| 20260510033227 | 11 | 138 | 1.6 | 3.2 | 0.00 | 0.00 | 0.00 | 99 | 1008.1 |
| 20260510032723 | 11 | 127 | 3.2 | 3.2 | 0.00 | 0.00 | 0.00 | 99 | 1008.0 |
| 20260510032219 | 11 | 132 | 1.6 | 3.2 | 0.00 | 0.00 | 0.00 | 99 | 1008.1 |
| 20260510031714 | 11 | 134 | 1.6 | 1.6 | 0.00 | 0.00 | 0.00 | 99 | 1008.2 |
| 20260510031210 | 11 | 135 | 1.6 | 1.6 | 0.00 | 0.00 | 0.00 | 98 | 1008.0 |
| 20260510030709 | 11 | 131 | 3.2 | 3.2 | 0.00 | 0.00 | 0.00 | 98 | 1008.1 |
| 20260510030208 | 12 | 131 | 1.6 | 1.6 | 0.00 | 0.00 | 0.00 | 98 | 1008.2 |
| 20260510025705 | 12 | 134 | 1.6 | 1.6 | 0.00 | 0.00 | 0.00 | 98 | 1008.1 |
| 20260510025202 | 12 | 133 | 3.2 | 3.2 | 0.00 | 0.00 | 0.00 | 98 | 1008.1 |
| 20260510024659 | 12 | 131 | 3.2 | 3.2 | 0.00 | 0.00 | 0.00 | 98 | 1007.8 |
| 20260510024155 | 12 | 136 | 3.2 | 3.2 | 0.00 | 0.00 | 0.00 | 98 | 1007.6 |
| 20260510023651 | 12 | 137 | 3.2 | 3.2 | 0.00 | 0.00 | 0.00 | 98 | 1007.9 |
| 20260510023148 | 12 | 128 | 4.8 | 4.8 | 0.00 | 0.00 | 0.00 | 97 | 1007.7 |
| 20260510022643 | 12 | 138 | 3.2 | 4.8 | 0.00 | 0.00 | 0.00 | 97 | 1007.6 |
| 20260510022139 | 12 | 132 | 1.6 | 3.2 | 0.00 | 0.00 | 0.00 | 96 | 1007.5 |
| 20260510021634 | 12 | 126 | 0.0 | 0.0 | 0.00 | 0.00 | 0.00 | 96 | 1007.6 |
| 20260510021131 | 12 | 132 | 0.0 | 0.0 | 0.00 | 0.00 | 0.00 | 96 | 1007.3 |
| 20260510020626 | 12 | 134 | 3.2 | 3.2 | 0.00 | 0.00 | 0.00 | 96 | 1007.4 |
| 20260510020121 | 12 | 134 | 0.0 | 0.0 | 0.00 | 0.00 | 0.00 | 95 | 1007.3 |
| 20260510015618 | 13 | 132 | 0.0 | 0.0 | 0.00 | 0.00 | 0.00 | 95 | 1006.8 |
| 20260510015114 | 13 | 133 | 0.0 | 0.0 | 0.00 | 0.00 | 0.00 | 94 | 1007.2 |
| 20260510014610 | 13 | 129 | 0.0 | 0.0 | 0.00 | 0.00 | 0.00 | 94 | 1007.1 |
| 20260510014108 | 13 | 130 | 0.0 | 0.0 | 0.00 | 0.00 | 0.00 | 93 | 1006.9 |
| 20260510013602 | 13 | 131 | 0.0 | 0.0 | 0.00 | 0.00 | 0.00 | 92 | 1006.8 |
| 20260510013058 | 13 | 130 | 1.6 | 1.6 | 0.00 | 0.00 | 0.00 | 92 | 1006.7 |
| 20260510012557 | 13 | 132 | 0.0 | 0.0 | 0.00 | 0.00 | 0.00 | 91 | 1006.8 |
| 20260510012054 | 14 | 131 | 0.0 | 0.0 | 0.00 | 0.00 | 0.00 | 91 | 1006.5 |
| 20260510011553 | 14 | 130 | 0.0 | 1.6 | 0.00 | 0.00 | 0.00 | 90 | 1006.4 |
| 20260510011050 | 14 | 133 | 1.6 | 1.6 | 0.00 | 0.00 | 0.00 | 91 | 1006.5 |
| 20260510010546 | 14 | 129 | 1.6 | 1.6 | 0.00 | 0.00 | 0.00 | 89 | 1006.3 |
| 20260510010044 | 15 | 130 | 1.6 | 1.6 | 0.00 | 0.00 | 0.00 | 88 | 1006.5 |
| 20260510005539 | 15 | 132 | 1.6 | 1.6 | 0.00 | 0.00 | 0.00 | 87 | 1006.4 |
| 20260510005037 | 15 | 131 | 1.6 | 1.6 | 0.00 | 0.00 | 0.00 | 87 | 1006.4 |
| 20260510004534 | 15 | 127 | 0.0 | 0.0 | 0.00 | 0.00 | 0.00 | 85 | 1006.3 |
| 20260510004032 | 16 | 128 | 1.6 | 1.6 | 0.00 | 0.00 | 0.00 | 84 | 1006.3 |
| 20260510003529 | 16 | 127 | 1.6 | 1.6 | 0.00 | 0.00 | 0.00 | 83 | 1006.1 |
| 20260510003024 | 16 | 129 | 1.6 | 3.2 | 0.00 | 0.00 | 0.00 | 81 | 1006.1 |
| 20260510002520 | 17 | 132 | 1.6 | 1.6 | 0.00 | 0.00 | 0.00 | 79 | 1005.9 |
| 20260510002017 | 17 | 133 | 1.6 | 1.6 | 0.00 | 0.00 | 0.00 | 77 | 1005.9 |
| 20260510001514 | 17 | 118 | 1.6 | 3.2 | 0.00 | 0.00 | 0.00 | 76 | 1006.0 |
| 20260510001012 | 18 | 132 | 0.0 | 0.0 | 0.00 | 0.00 | 0.00 | 75 | 1006.2 |
| 20260510000512 | 18 | 128 | 1.6 | 1.6 | 0.00 | 0.00 | 0.00 | 74 | 1005.9 |
| 20260510000010 | 18 | 133 | 1.6 | 1.6 | 0.00 | 0.00 | 0.00 | 72 | 1006.0 |
| 20260509235507 | 19 | 131 | 0.0 | 0.0 | 0.00 | 0.00 | 0.00 | 71 | 1005.7 |
| 20260509235003 | 19 | 131 | 1.6 | 1.6 | 0.00 | 0.00 | 0.00 | 70 | 1005.7 |
| 20260509234459 | 19 | 130 | 4.8 | 8.0 | 0.00 | 0.00 | 0.00 | 69 | 1005.9 |
| 20260509233957 | 20 | 171 | 4.8 | 4.8 | 0.00 | 0.00 | 0.00 | 68 | 1005.7 |
| 20260509233454 | 20 | 125 | 3.2 | 4.8 | 0.00 | 0.00 | 0.00 | 68 | 1005.6 |
| 20260509232950 | 20 | 149 | 6.4 | 8.0 | 0.00 | 0.00 | 0.00 | 67 | 1005.7 |
| 20260509232449 | 20 | 135 | 4.8 | 4.8 | 0.00 | 0.00 | 0.00 | 67 | 1005.8 |
| 20260509231944 | 20 | 149 | 8.0 | 9.7 | 0.00 | 0.00 | 0.00 | 66 | 1005.5 |
| 20260509231441 | 20 | 120 | 4.8 | 8.0 | 0.00 | 0.00 | 0.00 | 66 | 1005.7 |